This demonstration page uses our WeatherBlox Daily Observations layout. Learn more.

Left ArrowRight Arrow

Hourly Observations for June 20, 2020

Temp ( °F °C ) Dew Point ( °F °C ) Humidity (%) Winds ( mph kmh ) Pressure ( in mb ) Visibility ( mi km ) Precip ( " mm )
12:53 am 00:53 Clear 68 20 63 17.2 84 84 Calm 30.07 1018 10 16 0.00 0.00
1:53 am 01:53 Clear 67 19.4 63 17.2 87 87 Calm 30.06 1018 10 16 0.00 0.00
2:53 am 02:53 Clear 66 18.9 62 16.7 87 87 Calm 30.04 1017 10 16 0.00 0.00
3:53 am 03:53 Clear 65 18.3 62 16.7 90 90 Calm 30.04 1017 10 16 0.00 0.00
4:53 am 04:53 Clear 63 17.2 61 16.1 93 93 Calm 30.04 1017 10 16 0.00 0.00
5:53 am 05:53 Clear 63 17.2 60 15.6 90 90 Calm 30.05 1018 10 16 0.00 0.00
6:53 am 06:53 Sunny 62 16.7 61 16.1 96 96 Calm 30.08 1019 9 14 0.00 0.00
7:53 am 07:53 Sunny 68 20 63 17.2 84 84 Calm 30.08 1019 10 16 0.00 0.00
8:53 am 08:53 Sunny 73 22.8 64 17.8 74 74 Calm 30.08 1019 10 16 0.00 0.00
9:53 am 09:53 Sunny 79 26.1 63 17.2 58 58 W 3 6 30.08 1019 10 16 0.00 0.00
10:53 am 10:53 Sunny 82 27.8 63 17.2 53 53 NNW 7 11 30.08 1019 10 16 0.00 0.00
11:53 am 11:53 Sunny 84 28.9 63 17.2 49 49 VRB 7 11 30.07 1018 10 16 0.00 0.00
12:53 pm 12:53 Sunny 85 29.4 63 17.2 48 48 N 8 13 30.07 1018 10 16 0.00 0.00
1:53 pm 13:53 Mostly Sunny 88 31.1 63 17.2 43 43 WNW 9 15 30.05 1018 10 16 0.00 0.00
2:53 pm 14:53 Mostly Sunny 87 30.6 61 16.1 42 42 VRB 6 9 30.03 1017 10 16 0.00 0.00
3:53 pm 15:53 Sunny 88 31.1 60 15.6 39 39 Calm 30.01 1016 10 16 0.00 0.00
4:53 pm 16:53 Mostly Sunny 89 31.7 62 16.7 41 41 VRB 5 7 30.00 1016 10 16 0.00 0.00
5:53 pm 17:53 Partly Cloudy 89 31.7 61 16.1 39 39 N 7 11 29.98 1015 10 16 0.00 0.00
6:53 pm 18:53 Sunny 88 31.1 58 14.4 36 36 VRB 3 6 29.97 1015 10 16 0.00 0.00
7:53 pm 19:53 Sunny 87 30.6 61 16.1 42 42 N 3 6 29.96 1015 10 16 0.00 0.00
8:53 pm 20:53 Clear 82 27.8 63 17.2 53 53 WNW 3 6 29.96 1015 10 16 0.00 0.00
9:53 pm 21:53 Clear 77 25 64 17.8 64 64 Calm 29.98 1015 10 16 0.00 0.00
10:53 pm 22:53 Clear 73 22.8 64 17.8 74 74 Calm 29.99 1016 10 16 0.00 0.00
11:53 pm 23:53 Clear 73 22.8 65 18.3 76 76 Calm 30.00 1016 10 16 0.00 0.00

Powered by AerisWeather